Weather Roundup
Issued by NWS

Home | Current Version | Previous Version | Graphics & Text | Print | Product List | Glossary Off
Versions: 1 2 3 4 5 6 7 8 9 10 11 12 13 14 15 16 17 18 19 20 21 22 23 24 25 26 27 28 29 30 31 32 33 34 35 36 37 38 39 40 41 42 43 44 45 46 47 48 49 50

000
NZUS93 KARX 021010
HRRWXR

CURRENT HOURLY OBSERVATIONS ACROSS
MUCH OF THE UPPER MISSISSIPPI VALLEY
NATIONAL WEATHER SERVICE LA CROSSE WI
500 AM CDT TUE SEP 02 2014


...SOUTHEAST MINNESOTA...


CITY           SKY/WX    TMP DP  RH WIND       PRES   REMARKS
ROCHESTER      CLOUDY    60  55  83 W8        29.87S
ROCHESTER/MAYO FAIR      61  54  78 SW6       29.87S
WINONA         MOCLDY    59  57  94 CALM      29.85S
AUSTIN         CLOUDY    61  55  82 W8        29.87F
ALBERT LEA     CLOUDY    61  57  88 CALM      29.89S
DODGE CENTER   CLOUDY    61  57  88 SW8       29.87S
PRESTON        MOCLDY    56  57 100 CALM      29.88S
OWATONNA       LGT RAIN  61  57  88 W3        29.88R
FARIBAULT      CLOUDY    64  57  77 W3        29.87R
$$

...ELSEWHERE IN MINNESOTA...


CITY           SKY/WX    TMP DP  RH WIND       PRES   REMARKS
MINNEAPOLIS    CLOUDY    63  59  87 SW5       29.83S
INTNL FALLS    CLEAR     47  46  97 SW5       29.74S
DULUTH         MOCLDY    55  51  86 W7        29.81R
RED WING       CLOUDY    61  57  88 NW3       29.83R
REDWOOD FALLS  CLOUDY    62  55  77 W8        29.87S
MANKATO        CLOUDY    61  54  77 W10       29.88S
WORTHINGTON    CLOUDY    59  55  88 W6        29.93F
FAIRMONT       CLOUDY    61  52  72 NW10      29.90R
$$

...SOUTHWEST WISCONSIN...


CITY           SKY/WX    TMP DP  RH WIND       PRES   REMARKS
LA CROSSE      PTCLDY    61  59  93 S6        29.85R
PRAIRIE DU CHI CLEAR     57  56  95 CALM      29.87R
BOSCOBEL       FOG       59  57  93 SW3       29.87S VSB 1/4
LONE ROCK      FOG       63  59  87 N3        29.87S VSB 1/4
PLATTEVILLE      N/A     60  59  97 CALM      29.89S VSB 1/4
FORT MC COY    CLEAR     52  51  97 CALM      29.86S
CAMP DOUGLAS   FOG       52  52 100 CALM      29.85S VSB 1/4
VIROQUA        FAIR      58  58 100 SW5       29.87F
WIS DELLS      CLEAR     55  55 100 S3        29.87R
$$

...ELSEWHERE IN WISCONSIN...


CITY           SKY/WX    TMP DP  RH WIND       PRES   REMARKS
MILWAUKEE      MOCLDY    67  62  84 W3        29.88R
MADISON        CLEAR     58  57  97 CALM      29.87R FOG
GREEN BAY      CLEAR     54  54 100 S5        29.83S
EAU CLAIRE     MOCLDY    59  58  96 S5        29.81F
BLACK RVR FLS  FAIR      55  55 100 CALM      29.84S
MEDFORD        CLEAR     55  54  97 SW5       29.83F
WAUSAU         CLEAR     54  53  97 CALM      29.83R
WIS RAPIDS     CLEAR     54  53  97 CALM      29.86S FOG
MARSHFIELD     CLEAR     55  54  96 CALM      29.85R
RICE LAKE      CLOUDY    57  56  95 NW3       29.84S
$$

...NORTHEAST IOWA...


CITY           SKY/WX    TMP DP  RH WIND       PRES   REMARKS
WATERLOO       TSTM      62  59  90 NW7       29.90R
DUBUQUE        CLEAR     58  57  97 CALM      29.89S
DECORAH        PTCLDY    57  57 100 CALM      29.87S
MASON CITY     TSTM      62  58  86 SW17G26   29.94R
CHARLES CITY   CLOUDY    61  59  94 W9        29.90R
OELWEIN        CLOUDY    59  59 100 CALM      29.89S
$$

...ELSEWHERE IN IOWA...


CITY           SKY/WX    TMP DP  RH WIND       PRES   REMARKS
DES MOINES     PTCLDY    64  58  80 CALM      29.90R
IOWA CITY      PTCLDY    62  61  96 CALM      29.89S
FORT DODGE     CLOUDY    61  57  88 CALM      29.92R
MARSHALLTOWN   CLOUDY    63  60  90 W8        29.90S
CEDAR RAPIDS   PTCLDY    61  61 100 CALM      29.87S
$$

...NORTHERN ILLINOIS...


CITY           SKY/WX    TMP DP  RH WIND       PRES   REMARKS
CHICAGO-OHARE  CLOUDY    68  64  87 W5        29.87S
DUPAGE         FOG       66  64  93 CALM      29.87F VSB 1
CHICAGO-MIDWAY CLOUDY    71  68  90 SW3       29.87S
MOLINE         FOG       63  62  97 CALM      29.88R VSB 1/2
ROCKFORD       FOG       63  61  93 CALM      29.89S VSB 1/2
STERLING       PTCLDY    63  61  94 CALM      29.88S VSB 1
PEORIA         CLOUDY    72  68  87 SW9       29.89S
$$

NOTE: "FAIR" INDICATES FEW OR NO CLOUDS BELOW 12,000 FEET WITH NO
SIGNIFICANT WEATHER AND/OR OBSTRUCTIONS TO VISIBILITY. WIND
SPEEDS ARE IN MILES-PER-HOUR.



USA.gov is the U.S. government's official web portal to all federal, state and local government web resources and services.